Meteo Giornale » Osservazioni meteo Francia » Lann Bihoue
ore: 09:30 - Osservazioni Meteo Lann Bihoue
Lat. 47° 46' N Lon. 3° 27' W Alt. 52 metri s.l.m.
14 °C
Sereno
Temp. 24 Ore
11 °C
22 °C
Nord
5.5 Km/h
Dew point 12 °C
Umidità 87 %
Visibilità 10 Km
Il sole sorge alle ore 07:32
Il sole tramonta alle ore 20:55
| Data e Ora | Cielo e Fenomeni | T °C | DP °C | Um. % | Pres. hPa | Vis. km | Vento km/h | |
|---|---|---|---|---|---|---|---|---|
| Oggi h: 09:30 | Sereno | 14 | 12 | 87 | 1023 | 10 | N 5.5 | |
| Oggi h: 09:00 | Sereno | 13 | 13 | 100 | 1023 | 10 | N 5.5 | |
| Oggi h: 08:30 | Sereno | 12 | 12 | 100 | 1023 | 10 | N 5.5 | |
| Oggi h: 08:00 | Sereno | 11 | 11 | 100 | 1023 | 10 | N 5.5 | |
| Oggi h: 07:30 | Sereno | 11 | 10 | 93 | 1023 | 10 | N 5.5 | |
| Oggi h: 07:00 | Sereno | 11 | 11 | 100 | 1023 | 10 | N 5.5 | |
| Oggi h: 06:30 | Sereno | 11 | 11 | 100 | 1023 | 10 | N 5.5 | |
| Oggi h: 06:00 | Sereno | 12 | 11 | 93 | 1023 | 10 | N 5.5 | |
| Oggi h: 05:30 | Sereno | 11 | 11 | 100 | 1023 | 10 | N 3.7 | |
| Oggi h: 05:00 | Sereno | 11 | 11 | 100 | 1023 | 10 | N 3.7 | |
| Oggi h: 04:30 | Sereno | 12 | 12 | 100 | 1023 | 10 | N 3.7 | |
| Oggi h: 04:00 | Sereno | 12 | 11 | 93 | 1023 | 10 | N 0 | |
| Oggi h: 03:30 | Sereno | 12 | 12 | 100 | 1022 | 10 | N 3.7 | |
| Oggi h: 03:00 | Sereno | 13 | 12 | 93 | 1023 | 10 | N 5.5 | |
| Oggi h: 02:30 | Sereno | 13 | 11 | 87 | 1023 | 10 | N 7.4 | |
| Oggi h: 02:00 | Sereno | 13 | 12 | 93 | 1023 | 10 | N 5.5 | |
| Oggi h: 01:30 | Sereno | 13 | 11 | 87 | 1023 | 10 | N 7.4 | |
| Oggi h: 01:00 | Sereno | 14 | 12 | 87 | 1023 | 10 | N/NO 7.4 | |
| Oggi h: 00:30 | Sereno | 15 | 13 | 87 | 1023 | 10 | N/NO 7.4 | |
| Oggi h: 00:00 | Sereno | 15 | 12 | 82 | 1023 | 10 | O/NO 7.4 | |
| Ieri h: 23:30 | Sereno | 15 | 12 | 82 | 1023 | 10 | O 7.4 | |
| Ieri h: 23:00 | Sereno | 16 | 12 | 77 | 1022 | 10 | O 7.4 | |
| Ieri h: 22:30 | Sereno | 16 | 12 | 77 | 1022 | 10 | O/NO 7.4 | |
| Ieri h: 22:00 | Sereno | 16 | 13 | 82 | 1022 | 10 | N 5.5 | |
| Ieri h: 21:30 | Sereno | 17 | 13 | 77 | 1022 | 10 | O 9.3 | |
| Ieri h: 21:00 | Sereno | 18 | 13 | 72 | 1021 | 10 | O 11.1 | |
| Ieri h: 20:30 | Sereno | 19 | 13 | 68 | 1021 | 10 | O 16.7 | |
| Ieri h: 20:00 | Sereno | 19 | 13 | 68 | 1021 | 10 | O 22.2 | |
| Ieri h: 19:30 | Sereno | 20 | 14 | 68 | 1021 | 10 | O/SO 24 | |
| Ieri h: 19:00 | Sereno | 20 | 14 | 68 | 1021 | 10 | O/SO 24 | |
| Ieri h: 18:30 | Sereno | 20 | 14 | 68 | 1021 | 10 | O/SO 29.6 | |
| Ieri h: 18:00 | Sereno | 21 | 14 | 64 | 1021 | 10 | O/SO 29.6 | |
| Ieri h: 17:30 | Sereno | 21 | 13 | 60 | 1020 | 10 | O/SO 29.6 | |
| Ieri h: 17:00 | Sereno | 21 | 14 | 64 | 1020 | 10 | O 29.6 | |
| Ieri h: 16:30 | Sereno | 21 | 15 | 68 | 1020 | 10 | O/SO 33.3 | |
| Ieri h: 16:00 | Sereno | 21 | 14 | 64 | 1020 | 10 | O/SO 35.2 | |
| Ieri h: 15:30 | Molto Nuvoloso | 22 | 14 | 60 | 1020 | 10 | O/SO 37 | |
| Ieri h: 15:00 | Poco Nuvoloso | 22 | 14 | 60 | 1020 | 10 | O/SO 31.5 | |
| Ieri h: 14:30 | Sereno | 22 | 14 | 60 | 1020 | 10 | O/SO 33.3 | |
| Ieri h: 14:00 | Poco Nuvoloso | 21 | 14 | 64 | 1020 | 10 | O 31.5 | |
| Ieri h: 13:30 | Molto Nuvoloso | 21 | 14 | 64 | 1020 | 10 | O 33.3 | |
| Ieri h: 13:00 | Poco Nuvoloso | 21 | 14 | 64 | 1019 | 10 | O/SO 33.3 | |
| Ieri h: 12:30 | Molto Nuvoloso | 21 | 15 | 68 | 1019 | 10 | O 27.8 | |
| Ieri h: 12:00 | Molto Nuvoloso | 21 | 14 | 64 | 1019 | 10 | O/SO 25.9 | |
| Ieri h: 11:30 | Molto Nuvoloso | 20 | 13 | 64 | 1019 | 10 | O 16.7 | |
| Ieri h: 11:00 | Molto Nuvoloso | 19 | 14 | 72 | 1018 | 10 | O 20.3 | |
| Ieri h: 10:30 | Molto Nuvoloso | 19 | 14 | 72 | 1018 | 10 | O 24 | |
| Ieri h: 10:00 | Molto Nuvoloso | 19 | 15 | 77 | 1018 | 10 | O 18.5 | |



